Погода в Алешкине

Россия / Ульяновская область     53°29′18″N   48°08′14″E
темп.,
°C
ветер,
м/с
пор.,
м/с
влажн.,
%
обл.,
%
осадки,
мм/ч
давл.,
гПа
погр.,
м
14 июня, пн
пн1401:00+16ююв228366 0.0 101412
04:00+15юз1183100 0.0 101411
07:00+18св0077100 0.0 101566
10:00+22сз2266100 0.1 1015427
13:00+23ссз3467100 0.0 1015636
16:00+21сз6673100 0.4 1016757
19:00+17юз2291100 1.7 101648
22:00+16в2491100 3.2 101492
15 июня, вт
вт1501:00+16ссз1193100 0.2 101423
04:00+16юв1192100 0.5 101518
07:00+17в138999 0.7 1015179
10:00+20всв5679100 0.7 1014490
13:00+24всв676788 0.0 1012920
16:00+25в5967100 0.8 10111339
19:00+23в51078100 1.9 1009282
22:00+18всв3108476 1.9 1009182
16 июня, ср
ср1601:00+17в228831 0.0 100727
04:00+16вюв22885 0.4 100711
07:00+18ююв36885 0.0 1007225
10:00+22ю56755 0.0 1007761
13:00+23ююз577028 0.9 10071246
16:00+24юз576817 2.0 10071213
19:00+23зюз47785 0.7 1007409
22:00+19сз4119198 0.8 1009317
17 июня, чт
чт1701:00+17ссз6139212 0.0 1011514
04:00+16ссз7118694 0.0 1014624
07:00+14ссз613790 0.0 1016539
10:00+18с710575 0.0 10171142
13:00+21с78500 0.0 10181826
16:00+21с78525 0.0 10181974
19:00+18ссз4866100 0.0 1019448
22:00+14сз34764 0.1 102169
18 июня, пт
пт1801:00+12сз35864 0.0 102274
04:00+11сз35865 0.0 102380
07:00+14ссз36754 0.0 1024208
10:00+19с57555 0.0 10241191
13:00+20с68490 0.0 10251940
16:00+20ссв57505 0.0 10251823
19:00+19св36655 0.0 1026373
22:00+14ссв11737 0.0 102710